#timestamp,LO_Frequency,Hit,StdDev 
1547992815.8,285940298.4,N
1547992835.6,285940303.4,N
1547992855.5,285940304.2,N
1547992875.3,285940304.6,N
1547992895.1,285940298.9,N
1547992915.9,285940289.2,N
1547992935.7,285940282.4,N
1547992955.6,285940279.7,N
1547992975.4,285940275.2,N
1547992995.2,285940266.2,N
1547993015.1,285940269.7,N
1547993016.0,285940269.7,N
1547993035.8,285940269.2,N
1547993055.7,285940265.2,N
1547993075.5,285940259.5,N
1547993095.3,285940262.6,N
1547993115.2,285940261.5,N
1547993135.0,285940261.6,N
1547993135.9,285940261.6,N
1547993155.7,285940270.1,N
1547993175.6,285940259.7,N
1547993195.4,285940264.8,N
1547993215.3,285940270.8,N
1547993235.1,285940273.1,N
1547993255.8,285940266.2,N
1547993275.7,285940280.7,N
1547993295.5,285940285.3,N
1547993315.4,285940282.1,Y
1547993335.2,286047004.2,P
1547993355.0,286046997.9,N
1547993355.9,286046997.9,N
1547993375.8,286046992.5,N
1547993395.6,286046987.8,N
1547993415.5,286046987.9,N
1547993435.3,286046987.5,N
1547993455.1,286046996.0,N
1547993475.9,286046996.5,N
1547993495.7,286046998.2,N
1547993515.5,286046997.5,N
1547993535.4,286041954.2,N
1547993555.2,286046989.0,N
1547993575.1,286046983.3,N
1547993576.0,286046983.3,N
1547993595.8,286046981.2,N
1547993615.6,286046980.3,N
1547993635.5,286046976.1,N
1547993655.3,286046980.1,N
1547993675.1,286046989.3,N
1547993695.9,286046997.7,N
1547993715.7,286046997.0,N
1547993735.6,286047004.1,N
1547993755.4,286047003.7,N
1547993775.2,286046998.3,N
1547993795.1,286046995.9,N
1547993796.0,286046995.9,N
1547993815.8,286046982.5,N
1547993835.7,286046975.0,N
1547993855.5,286046969.5,N
1547993875.3,286046968.3,N
1547993895.2,286046983.3,N
1547993915.0,286046990.6,N
1547993915.9,286046990.6,N
1547993935.8,286046992.1,N
1547993955.6,286046981.5,N
1547993975.4,286046975.5,N
1547993995.3,286046981.2,N
1547994015.1,286046985.6,N
1547994035.8,286046985.2,N
1547994055.7,286046981.1,N
1547994075.5,286046983.9,N
1547994095.4,286046976.8,N
1547994115.2,286046972.2,Y
1547994135.0,286046982.2,P
1547994135.9,286046982.2,P
1547994155.8,286046990.2,P
1547994175.6,286047002.9,N
1547994195.5,286047020.1,N
1547994215.3,286047017.1,N
1547994235.1,286047023.1,N
1547994255.9,286047034.1,N
1547994275.7,286047042.3,N
1547994295.5,286047046.0,N
1547994315.4,286047036.6,N
1547994335.2,286047030.1,N
1547994355.1,286047035.3,N
1547994356.0,286047035.3,N
1547994375.8,286047044.0,N
1547994395.6,286047042.5,N
1547994415.5,286047048.9,N
1547994435.3,286047057.9,N
1547994455.2,286047061.2,N
1547994475.9,286047071.5,N
1547994495.7,286047065.9,N
1547994515.6,286047081.0,Y
1547994535.4,286047055.2,P
1547994555.2,286047060.2,P
1547994575.1,286047061.2,P
1547994576.0,286047061.2,Y
1547994595.8,286047008.4,P
1547994615.7,286047000.3,N
1547994635.5,286046995.1,N
1547994655.3,286046989.4,N
1547994675.2,286046991.8,N
1547994695.0,286047003.3,N
1547994695.9,286047003.3,N
1547994715.8,286047013.1,N
1547994735.6,286047020.8,N
1547994755.5,286047021.1,N
1547994775.3,286047024.5,N
1547994795.1,286047027.7,N
1547994815.9,286047034.5,N
1547994835.7,286047030.3,N
1547994855.6,286047036.9,N
1547994875.4,286047046.0,N
1547994895.2,286047046.7,N
1547994915.1,286047056.5,N
1547994916.0,286047056.5,N
1547994935.8,286047054.5,N
1547994955.7,286047054.3,N
1547994975.5,286047057.8,N
1547994995.3,286047059.3,N
1547995015.2,286047066.8,N
1547995035.0,286047058.0,N
1547995035.9,286047058.0,N
1547995055.8,286047059.8,N
1547995075.6,286047052.8,N
1547995095.5,286047059.0,N
1547995115.3,286047052.2,N
1547995135.1,286047052.7,N
1547995155.9,286047045.0,N
1547995175.7,286047044.6,N
1547995195.5,286047051.9,N
1547995215.4,286047052.0,N
1547995235.2,286047054.4,Y
1547995255.1,286047025.1,P
1547995256.0,286047025.1,N
1547995275.8,286047032.6,P
1547995295.6,286047029.2,Y
1547995315.5,286046980.7,P
1547995335.3,286046980.9,N
1547995355.2,286046979.3,N
1547995375.9,286046970.2,N
1547995395.7,286046980.6,N
1547995415.6,286046981.9,N
1547995435.4,286046987.8,N
1547995455.2,286046992.6,N
1547995475.1,286046997.5,N
1547995476.0,286046997.5,N
1547995495.8,286047002.3,N
1547995515.7,286047002.4,N
1547995535.5,286047004.0,N
1547995555.3,286047008.9,N
1547995575.2,286047007.7,N
1547995595.0,286047009.8,N
1547995595.9,286047009.8,N
1547995615.8,286047010.2,N
1547995635.6,286047003.0,N
1547995655.4,286047003.2,N
1547995675.3,286047005.8,N
1547995695.1,286047008.8,N
1547995715.9,286047006.9,N
1547995735.7,286047004.4,N
1547995755.5,286046997.1,N
1547995775.4,286046996.2,N
1547995795.2,286046995.5,N
1547995815.0,286046996.7,N
1547995816.0,286046996.7,N
1547995835.8,286046999.5,N
1547995855.6,286047011.9,N
1547995875.5,286047004.6,N
1547995895.3,286046996.0,N
1547995915.1,286046997.2,N
1547995935.9,286046999.4,N
1547995955.7,286046985.7,N
1547995975.6,286046982.9,N
1547995995.4,286046984.4,N
1547996015.2,286046976.4,Y
1547996035.1,286046975.8,P
1547996036.0,286046975.8,N
1547996055.8,286046976.5,N
1547996075.7,286046980.1,N
1547996095.5,286046978.0,N
1547996115.3,286046970.6,Y
1547996135.2,286046990.0,P
1547996155.0,286046996.0,N
1547996155.9,286046996.0,N
1547996175.7,286046998.5,N
1547996195.6,286047000.1,N
1547996215.4,286047001.1,N
1547996235.3,286047001.8,N
1547996255.1,286047001.9,N
1547996275.8,286047004.4,N
1547996295.7,286046992.6,N
1547996315.5,286046984.3,N
1547996335.4,286046986.7,N
1547996355.2,286046980.8,N
1547996375.0,286046979.6,N
1547996375.9,286046979.6,N
1547996395.8,286046974.3,N
